Location: Sevilla
(37.3933°N, 5.9839°W)
Time: 02:00:10
(UTC+02:00)

deb Explorer IX - All Passes

Search period start: 16 June 2024 00:00
Search period end: 26 June 2024 00:00
Orbit: 510 x 886 km, 38.7° (Epoch: 15 June)

Date Brightness Start Highest point End Pass type
(mag) Time Alt. Az. Time Alt. Az. Time Alt. Az.
16 Jun - 11:25:54 10° S 11:29:21 19° SE 11:33:05 10° E daylight
16 Jun - 13:07:50 10° WSW 13:12:55 63° SSE 13:18:36 10° ENE daylight
16 Jun - 14:51:46 10° W 14:57:17 79° N 15:03:18 10° E daylight
16 Jun - 16:36:02 10° WNW 16:41:53 88° SSW 16:48:02 10° ESE daylight
16 Jun - 18:20:30 10° W 18:26:07 41° SSW 18:31:47 10° SE daylight
16 Jun - 20:07:45 10° WSW 20:09:39 11° SW 20:11:33 10° SSW daylight
17 Jun - 10:27:35 10° SE 10:28:10 10° SE 10:28:46 10° SE daylight
17 Jun - 12:06:45 10° SW 12:11:23 43° SSE 12:16:34 10° E daylight
17 Jun - 13:50:12 10° W 13:55:29 86° N 14:01:21 10° E daylight
17 Jun - 15:34:23 10° W 15:40:02 82° N 15:46:07 10° E daylight
17 Jun - 17:18:40 10° W 17:24:26 57° SSW 17:30:25 10° SE daylight
17 Jun - 19:04:03 10° W 19:08:15 19° SW 19:12:27 10° S daylight
18 Jun - 11:06:00 10° SSW 11:09:58 27° SSE 11:14:20 10° E daylight
18 Jun - 12:48:44 10° WSW 12:53:44 79° SSE 12:59:21 10° ENE daylight
18 Jun - 14:32:47 10° W 14:38:10 77° N 14:44:05 10° E daylight
18 Jun - 16:16:57 10° WNW 16:22:39 74° SSW 16:28:44 10° ESE daylight
18 Jun - 18:01:37 10° W 18:06:42 30° SSW 18:11:54 10° SSE daylight
19 Jun - 10:05:55 10° S 10:08:40 16° SE 10:11:36 10° ESE daylight
19 Jun - 11:47:25 10° SW 11:52:05 58° SSE 11:57:20 10° E daylight
19 Jun - 13:31:11 10° W 13:36:18 79° N 13:42:02 10° E daylight
19 Jun - 15:15:18 10° WNW 15:20:48 90° SSW 15:26:48 10° ESE daylight
19 Jun - 16:59:35 10° W 17:05:01 43° SSW 17:10:44 10° SE daylight
19 Jun - 18:46:12 10° WSW 18:48:39 13° SW 18:51:07 10° SSW daylight
20 Jun - 10:46:21 10° SW 10:50:32 38° SSE 10:55:13 10° E daylight
20 Jun - 12:29:37 10° W 12:34:28 88° N 12:39:58 10° E daylight
20 Jun - 14:13:40 10° W 14:18:54 80° N 14:24:45 10° E daylight
20 Jun - 15:57:46 10° W 16:03:15 59° SSW 16:09:09 10° SE daylight
20 Jun - 17:42:53 10° W 17:47:06 20° SW 17:51:27 10° S daylight
21 Jun - 09:45:39 10° SSW 09:49:07 23° SE 09:52:52 10° E daylight
21 Jun - 11:28:08 10° WSW 11:32:43 75° SSE 11:37:54 10° ENE daylight
21 Jun - 13:12:02 10° W 13:17:00 76° N 13:22:36 10° E daylight
21 Jun - 14:56:04 10° WNW 15:01:24 76° SSW 15:07:17 10° ESE daylight
21 Jun - 16:40:32 10° W 16:45:27 30° SSW 16:50:38 10° SSE daylight
22 Jun - 08:45:49 10° SSE 08:47:46 13° SE 08:49:46 10° ESE daylight
22 Jun - 10:26:48 10° SW 10:31:03 52° SSE 10:35:50 10° E daylight
22 Jun - 12:10:25 10° W 12:15:07 79° N 12:20:27 10° E daylight
22 Jun - 13:54:25 10° W 13:59:31 88° NNE 14:05:13 10° ESE daylight
22 Jun - 15:38:32 10° W 15:43:41 43° SSW 15:49:15 10° SE daylight
22 Jun - 17:24:45 10° WSW 17:27:22 13° SW 17:30:01 10° SSW daylight
23 Jun - 09:25:43 10° SW 09:29:30 33° SSE 09:33:38 10° E daylight
23 Jun - 11:08:49 10° WSW 11:13:17 90° WNW 11:18:20 10° ENE daylight
23 Jun - 12:52:46 10° W 12:57:36 78° N 13:03:02 10° E daylight
23 Jun - 14:36:44 10° W 14:41:51 60° SSW 14:47:30 10° ESE daylight
23 Jun - 16:21:37 10° W 16:25:42 21° SW 16:29:59 10° SSE daylight
24 Jun - 08:25:03 10° SSW 08:28:01 20° SE 08:31:10 10° E daylight
24 Jun - 10:07:17 10° WSW 10:11:31 70° SSE 10:16:15 10° E daylight
24 Jun - 11:51:06 10° W 11:55:40 75° N 12:00:50 10° E daylight
24 Jun - 13:35:02 10° WNW 13:39:57 78° SSW 13:45:30 10° ESE daylight
24 Jun - 15:19:19 10° W 15:23:57 31° SSW 15:28:58 10° SSE daylight
25 Jun - 07:25:54 10° SSE 07:26:36 10° SE 07:27:20 10° SE daylight
25 Jun - 09:05:55 10° SW 09:09:50 47° SSE 09:14:09 10° E daylight
25 Jun - 10:49:26 10° W 10:53:46 79° N 10:58:39 10° E daylight
25 Jun - 12:33:21 10° W 12:38:02 86° N 12:43:20 10° E daylight
25 Jun - 14:17:21 10° W 14:22:08 44° SSW 14:27:25 10° SE daylight
25 Jun - 16:03:17 10° WSW 16:05:49 13° SW 16:08:25 10° S daylight
